[[[{"header":{"parameterUnit":"kt","parameterCategory":2,"dx":1,"dy":1,"la1":30.253999710083008,"la2":30.299108505249023,"lo1":-89.0895004272461,"lo2":-89.04439544677734,"nx":28,"ny":28,"refTime":"2022-09-24T21:00:00:Z","depth":0,"parameterNumber":1,"parameterNumberName":"U-component_of_WINDS"},"data":[-2.7319,-2.7392,-2.7372,-2.7448,-2.7443,-2.7492,-2.7504,-2.7517,-2.7523,-2.7582,-2.7613,-2.7602,-2.7602,-2.7636,-2.767,-2.7665,-2.7683,-2.7725,-2.7712,-2.7538,-2.7513,-2.7489,-2.747,-2.7728,-2.7728,-2.7895,-2.7897,-2.7898,-2.7201,-2.7197,-2.7229,-2.7247,-2.7276,-2.7224,-2.7235,-2.7264,-2.731,-2.7317,-2.7345,-2.7395,-2.7433,-2.7418,-2.7452,-2.749,-2.7468,-2.7501,-2.7499,-2.7501,-2.7314,-2.7294,-2.7518,-2.7518,-2.7518,-2.7518,-2.7518,-2.7518,-2.6982,-2.7025,-2.7023,-2.7058,-2.7061,-2.7074,-2.7113,-2.7096,-2.7129,-2.7158,-2.7127,-2.718,-2.7184,-2.7213,-2.7218,-2.7261,-2.7221,-2.7251,-2.7259,-2.7268,-2.7283,-2.7052,-2.7265,-2.7264,-2.7264,-2.7263,-2.7263,0,-2.6815,-2.6794,-2.6822,-2.6845,-2.6869,-2.6885,-2.6896,-2.692,-2.6869,-2.6898,-2.694,-2.696,-2.7002,-2.7041,-2.7067,-2.7065,-2.7016,-2.7007,-2.7028,-2.7046,-2.706,-2.7058,-2.6758,-2.7001,-2.6999,-2.6997,-2.6996,-2.6995,-2.6595,-2.6646,-2.6632,-2.6655,-2.6654,-2.6692,-2.671,-2.666,-2.6683,-2.669,-2.6732,-2.6768,-2.6794,-2.6866,-2.6846,-2.6878,-2.6855,-2.6951,-2.6859,-2.6875,-2.6861,-2.686,-2.6867,-2.697,-2.6973,-2.6976,-2.6978,0,-2.6474,-2.6436,-2.6509,-2.6488,-2.6484,-2.6542,-2.6526,-2.6568,-2.6545,-2.66,-2.661,-2.6575,-2.6617,-2.658,-2.662,-2.6601,-2.6704,-2.6678,-2.6704,-2.6698,-2.6783,-2.6777,-2.7057,-2.7093,-2.6821,-2.6824,-2.6826,0,-2.6273,-2.6342,-2.6282,-2.6326,-2.6402,-2.6348,-2.6426,-2.6413,-2.6411,-2.6454,-2.6388,-2.643,-2.6375,-2.6414,-2.6384,-2.6461,-2.6467,-2.6458,-2.645,-2.6465,-2.6467,-2.6479,-2.6468,-2.6423,-2.6422,-2.6421,-2.6419,0,-2.6091,-2.6136,-2.6206,-2.6211,-2.6194,-2.623,-2.6225,-2.6221,-2.6239,-2.6256,-2.6268,-2.6293,-2.6308,-2.6329,-2.6291,-2.6231,-2.6382,-2.6291,-2.6373,-2.6375,-2.641,-2.6409,-2.6664,-2.6418,-2.6417,-2.6417,-2.6416,0,-2.5922,-2.5937,-2.6043,-2.6028,-2.6042,-2.6088,-2.6107,-2.6137,-2.6138,-2.6121,-2.6134,-2.6086,-2.6145,-2.6059,-2.6142,-2.6075,-2.6095,-2.609,-2.6095,-2.61,-2.6005,-2.6158,-2.6401,-2.6427,-2.6104,-2.6101,-2.6099,0,-2.5726,-2.582,-2.5772,-2.5874,-2.5912,-2.5835,-2.5885,-2.5886,-2.5867,-2.5899,-2.5878,-2.5914,-2.5841,-2.5847,-2.5893,-2.5874,-2.5961,-2.5861,-2.5915,-2.5917,-2.592,-2.6143,-2.619,-2.6352,-2.6065,-2.6068,-2.6071,0,-2.5569,-2.5543,-2.5564,-2.5567,-2.5555,-2.5586,-2.5643,-2.5665,-2.5689,-2.5695,-2.5744,-2.5792,-2.574,-2.575,-2.5712,-2.5762,-2.5901,-2.5699,-2.5698,-2.574,-2.6042,-2.6087,-2.6115,-2.5865,-2.5869,-2.5873,-2.6044,0,-2.5331,-2.537,-2.5424,-2.5428,-2.5445,-2.5503,-2.5458,-2.5482,-2.5443,-2.542,-2.5489,-2.5477,-2.5501,-2.5518,-2.548,-2.5604,-2.5578,-2.5521,-2.5435,-2.558,-2.5636,-2.5659,-2.5357,-2.5354,-2.5351,-2.5349,0,0,-2.5155,-2.5209,-2.5151,-2.5201,-2.5212,-2.5128,-2.5196,-2.5196,-2.5199,-2.521,-2.5161,-2.5227,-2.5219,-2.5308,-2.535,-2.5357,-2.5377,-2.5326,-2.5511,-2.5529,-2.5546,-2.5606,-2.563,-2.5345,-2.5344,-2.5343,-2.5343,0,-2.5058,-2.5046,-2.5111,-2.5108,-2.5102,-2.5072,-2.5088,-2.5066,-2.5054,-2.5118,-2.505,-2.5085,-2.5136,-2.5139,-2.5147,-2.5314,-2.5262,-2.5324,-2.5431,-2.5488,-2.551,-2.5528,-2.5592,-2.5615,-2.5337,-2.5337,-2.5337,0,-2.4898,-2.488,-2.4905,-2.4919,-2.4914,-2.4953,-2.4852,-2.4896,-2.4926,-2.4831,-2.4896,-2.4883,-2.4881,-2.4968,-2.5005,-2.4962,-2.516,-2.5087,-2.5101,-2.5105,-2.5158,-2.5184,-2.5207,-2.4907,-2.4905,-2.4904,0,0,-2.4821,-2.4854,-2.4818,-2.4895,-2.4896,-2.4852,-2.4866,-2.4828,-2.4825,-2.4824,-2.4806,-2.4807,-2.4837,-2.4858,-2.4883,-2.4984,-2.4981,-2.5036,-2.5056,-2.5073,-2.5086,-2.5144,-2.5169,-2.4899,-2.4899,-2.4899,0,0,-2.4784,-2.4744,-2.4703,-2.4786,-2.4785,-2.4755,-2.4805,-2.4755,-2.4772,-2.476,-2.4698,-2.4695,-2.4775,-2.4765,-2.4704,-2.4852,-2.4768,-2.4781,-2.4856,-2.4881,-2.4901,-2.4903,-2.4598,0,0,0,0,0,-2.4659,-2.4748,-2.4712,-2.4718,-2.4735,-2.4775,-2.4777,-2.4726,-2.4668,-2.471,-2.4687,-2.4627,-2.472,-2.4664,-2.4673,-2.4742,-2.4835,-2.4846,-2.4857,-2.4977,-2.5004,-2.5026,0,0,0,0,0,0,-2.4662,-2.467,-2.4709,-2.4684,-2.4687,-2.4771,-2.4662,-2.4651,-2.4663,-2.465,-2.4634,-2.4627,-2.4585,-2.4656,-2.4665,-2.4732,-2.4595,-2.484,-2.4849,-2.4858,-2.4986,-2.5008,-2.5027,0,0,0,0,0,-2.4663,-2.4669,-2.4709,-2.4682,-2.4685,-2.4639,-2.4658,-2.4648,-2.4656,-2.4619,-2.461,-2.4617,-2.4588,-2.4592,-2.4661,-2.4729,-2.4589,-2.4592,-2.4846,-2.4853,-2.486,-2.4997,0,0,0,0,0,0,-2.4664,-2.4661,-2.4709,-2.4708,-2.4643,-2.4633,-2.463,-2.4646,-2.4623,-2.4615,-2.4599,-2.459,-2.4592,-2.4594,-2.4598,-2.4731,-2.4584,-2.4587,-2.4589,-2.4852,-2.4857,-2.4863,0,0,0,0,0,0,-2.4657,-2.4661,-2.4708,-2.4662,-2.4655,-2.4629,-2.4625,-2.4675,-2.4624,-2.4604,-2.4596,-2.4595,-2.4587,-2.4596,-2.4598,-2.4679,-2.458,-2.4583,-2.4585,-2.4587,-2.4856,-2.4861,0,0,0,0,0,0,-2.4658,-2.4661,-2.4662,-2.4657,-2.4651,-2.4637,-2.4672,-2.4693,-2.4583,-2.4607,-2.4572,-2.4567,-2.4591,-2.4592,-2.4599,-2.4679,-2.4679,-2.458,-2.4582,-2.4584,-2.4585,0,0,0,0,0,0,0,-2.4658,-2.4649,-2.4714,-2.4653,-2.4647,-2.47,-2.4699,-2.4699,-2.4582,-2.4577,-2.4573,-2.4569,-2.4561,-2.4564,-2.4568,-2.468,0,0,-2.458,-2.4581,0,0,0,0,0,0,0,0,-2.4646,-2.4648,-2.4714,-2.4713,-2.4713,-2.47,-2.4699,-2.4699,-2.4581,-2.4577,-2.4574,-2.457,-2.4562,-2.4565,-2.4568,0,0,0,0,0,0,0,0,0,0,0,0,0,0,0,-2.4714,-2.4713,0,-2.4699,-2.4699,-2.4699,-2.458,-2.4577,-2.4575,-2.4572,-2.4563,-2.4565,-2.4567,0,0,0,0,0,0,0,0,0,0,0,0,0,0,0,0,0,0,0,0,0,0,0,0,0,0,0,0,0,0,0,0,0,0,0,0,0,0,0,0,0,0,0,0,0,0,0,0,0,0,0,0,0,0,0,0,0,0,0,0,0,0,0,0,0,0,0,0,0]}],[{"header":{"parameterUnit":"kt","parameterCategory":2,"dx":1,"dy":1,"la1":30.253999710083008,"la2":30.299108505249023,"lo1":-89.0895004272461,"lo2":-89.04439544677734,"nx":28,"ny":28,"refTime":"2022-09-24T21:00:00:Z","depth":0,"parameterNumber":2,"parameterNumberName":"V-component_of_WINDS"},"data":[5.0301,5.0301,5.0305,5.0307,5.031,5.0312,5.0314,5.0316,5.0319,5.0321,5.0323,5.0327,5.0331,5.0334,5.0336,5.0337,5.0337,5.0335,5.0337,5.0346,5.0347,5.0348,5.0349,5.0335,5.0335,5.0326,5.0326,5.0326,5.0307,5.0311,5.0313,5.0317,5.0319,5.0324,5.0328,5.0329,5.033,5.0334,5.0336,5.0338,5.034,5.0345,5.0347,5.0347,5.0349,5.0348,5.0347,5.0348,5.0358,5.0358,5.0346,5.0346,5.0346,5.0346,5.0346,5.0346,5.0319,5.0319,5.0324,5.0326,5.0329,5.0332,5.0333,5.0337,5.0339,5.0343,5.0347,5.0348,5.0352,5.0357,5.0359,5.036,5.0363,5.0362,5.0361,5.0361,5.036,5.037,5.0361,5.0361,5.0361,5.0361,5.0361,0,5.0328,5.0331,5.0334,5.0337,5.0339,5.0342,5.0345,5.0346,5.0354,5.0355,5.0357,5.0359,5.0362,5.0364,5.0367,5.037,5.0374,5.0375,5.0375,5.0372,5.037,5.037,5.0386,5.0375,5.0375,5.0376,5.0376,5.0376,5.034,5.0339,5.0347,5.0348,5.0351,5.0352,5.0354,5.0361,5.0362,5.0367,5.0367,5.0369,5.0371,5.0374,5.0379,5.0381,5.0383,5.0379,5.0383,5.0381,5.0382,5.0382,5.0381,5.0377,5.0377,5.0377,5.0377,0,5.0346,5.0352,5.0353,5.036,5.0362,5.0361,5.0367,5.0367,5.0371,5.0372,5.0373,5.0379,5.0381,5.0387,5.039,5.0393,5.0391,5.0393,5.0389,5.039,5.0386,5.0386,5.0374,5.0372,5.0387,5.0387,5.0387,0,5.0357,5.0357,5.0366,5.0366,5.0366,5.0373,5.0372,5.0376,5.038,5.0381,5.0387,5.0388,5.0395,5.0396,5.04,5.04,5.0401,5.0402,5.0403,5.0402,5.0401,5.0402,5.0402,5.0407,5.0407,5.0407,5.0407,0,5.0366,5.037,5.0371,5.0373,5.038,5.038,5.0383,5.0388,5.0389,5.0392,5.0393,5.0396,5.0398,5.04,5.0405,5.0408,5.0405,5.041,5.0407,5.0406,5.0405,5.0405,5.0393,5.0407,5.0407,5.0407,5.0407,0,5.0376,5.0379,5.0379,5.0386,5.0386,5.0387,5.039,5.0392,5.0396,5.0399,5.0401,5.0406,5.0407,5.0411,5.0412,5.0414,5.0415,5.0417,5.0417,5.0417,5.0422,5.0414,5.0402,5.0401,5.0417,5.0418,5.0418,0,5.0383,5.0385,5.0391,5.0391,5.0392,5.04,5.04,5.0404,5.0408,5.0409,5.0413,5.0415,5.042,5.0421,5.0421,5.0425,5.0422,5.0425,5.0427,5.0427,5.0425,5.0415,5.0411,5.0404,5.0419,5.0419,5.0419,0,5.039,5.0399,5.0399,5.0401,5.0407,5.0409,5.0409,5.0413,5.0414,5.0417,5.0418,5.042,5.0424,5.0426,5.043,5.043,5.0424,5.0433,5.0433,5.0431,5.042,5.0417,5.0416,5.0427,5.0427,5.0427,5.042,0,5.0403,5.0405,5.0404,5.0409,5.0412,5.0412,5.0418,5.042,5.0424,5.0427,5.0428,5.0433,5.0436,5.0437,5.044,5.0437,5.0438,5.0442,5.0447,5.044,5.0438,5.0437,5.0449,5.0449,5.045,5.045,0,0,5.0408,5.0411,5.0417,5.0418,5.0421,5.0428,5.0428,5.0431,5.0436,5.0437,5.044,5.0444,5.0448,5.0448,5.0447,5.0448,5.0448,5.045,5.0443,5.0443,5.0442,5.0439,5.0438,5.045,5.045,5.045,5.045,0,5.0414,5.0418,5.0418,5.0421,5.0427,5.0431,5.0431,5.0437,5.044,5.0441,5.0447,5.0448,5.0452,5.0454,5.0456,5.045,5.0454,5.0451,5.0445,5.0445,5.0444,5.0443,5.044,5.0439,5.045,5.045,5.045,0,5.0421,5.0426,5.0427,5.0432,5.0436,5.0437,5.0444,5.0445,5.0446,5.0454,5.0455,5.0458,5.0462,5.0462,5.0462,5.0464,5.0459,5.0462,5.0462,5.0461,5.0461,5.046,5.0459,5.0472,5.0472,5.0472,0,0,5.0425,5.0427,5.0434,5.0434,5.0436,5.0442,5.0444,5.0448,5.0452,5.0454,5.0458,5.0461,5.0463,5.0465,5.0467,5.0466,5.0467,5.0465,5.0464,5.0463,5.0462,5.0461,5.046,5.0472,5.0472,5.0472,0,0,5.0427,5.0436,5.0439,5.0439,5.0443,5.045,5.045,5.0454,5.0457,5.0457,5.0464,5.0465,5.0465,5.0468,5.047,5.0468,5.0473,5.0473,5.0467,5.0465,5.0464,5.0463,5.0476,0,0,0,0,0,5.0437,5.0435,5.0438,5.0439,5.0446,5.0449,5.045,5.0455,5.0458,5.0457,5.0462,5.0466,5.047,5.0472,5.0473,5.047,5.0474,5.0474,5.0474,5.0466,5.0464,5.0463,0,0,0,0,0,0,5.0437,5.0438,5.0438,5.0445,5.0446,5.0449,5.0455,5.0456,5.0458,5.0459,5.0465,5.0466,5.0471,5.0472,5.0472,5.047,5.0476,5.0474,5.0474,5.0474,5.0465,5.0464,5.0463,0,0,0,0,0,5.0437,5.0438,5.0448,5.0445,5.0446,5.0453,5.0455,5.0456,5.0458,5.0465,5.0466,5.0462,5.0471,5.0471,5.0472,5.047,5.0476,5.0476,5.0474,5.0474,5.0474,5.0465,0,0,0,0,0,0,5.0438,5.0439,5.0449,5.0449,5.0446,5.0453,5.0454,5.0456,5.0463,5.0464,5.0462,5.0462,5.047,5.0471,5.0472,5.0469,5.0476,5.0476,5.0476,5.0474,5.0474,5.0473,0,0,0,0,0,0,5.0439,5.044,5.0449,5.045,5.0451,5.0453,5.0454,5.0456,5.0463,5.046,5.0461,5.0462,5.0469,5.0471,5.0471,5.0473,5.0475,5.0476,5.0476,5.0476,5.0474,5.0473,0,0,0,0,0,0,5.0439,5.044,5.045,5.0451,5.0451,5.0459,5.0454,5.0461,5.0465,5.046,5.0465,5.0465,5.0469,5.047,5.0471,5.0473,5.0473,5.0475,5.0475,5.0476,5.0476,0,0,0,0,0,0,0,5.044,5.0433,5.0445,5.0451,5.0452,5.0455,5.0455,5.0455,5.0465,5.0465,5.0465,5.0465,5.0474,5.0474,5.0475,5.0473,0,0,5.0475,5.0475,0,0,0,0,0,0,0,0,5.0433,5.0433,5.0445,5.0445,5.0445,5.0455,5.0455,5.0455,5.0465,5.0465,5.0465,5.0465,5.0474,5.0474,5.0475,0,0,0,0,0,0,0,0,0,0,0,0,0,0,0,5.0445,5.0445,0,5.0455,5.0455,5.0455,5.0465,5.0465,5.0465,5.0465,5.0474,5.0475,5.0475,0,0,0,0,0,0,0,0,0,0,0,0,0,0,0,0,0,0,0,0,0,0,0,0,0,0,0,0,0,0,0,0,0,0,0,0,0,0,0,0,0,0,0,0,0,0,0,0,0,0,0,0,0,0,0,0,0,0,0,0,0,0,0,0,0,0,0,0,0]}]]]